Back to catalog

FENGYUN 1C DEB

AliveSSO
NORAD 31043·DEBRIS·🇨🇳 China

Launched May 10, 1999 from Taiyuan Satellite Launch Center

Loading…

Next Passes (next 24 hours)

TLE

FreshSource: Space-Track

Epoch: Sep 14, 2026, 07:35 UTC

1 31043U 99025BEM 26257.31654321  .00000361  00000-0  23237-3 0  9993
2 31043  98.7521 272.2089 0040172 305.8407 121.3710 14.08818852998675

Track FENGYUN 1C DEB in real time with AllMySat

Download on the App Store